Track COSMOS 2458 (GLONASS) now! COSMOS 2458 (GLONASS) is classified as:
1 36113U 09070C 24325.84286044 .00000017 00000-0 00000-0 0 9990 2 36113 64.6796 90.4821 0003819 310.7422 54.8135 2.13082335116245